Lapse_Rate
3.0 5.7 6.0 5.5 4.8 4.6 4.3 3.7 3.8 4.0 4.2 3.6 3.3 2.6 4.5 4.8 4.4 4.2 5.3 5.2 5.2 4.4 3.9 3.4 3.9 2.6 2.1 2.4 2.6 2.0 2.2 2.2
2.8 3.6 5.4 5.5 5.5 5.7 5.2 4.6 3.5 4.8 4.9 4.3 3.8 4.6 4.0 5.4 5.2 5.0 5.1 5.3 4.7 4.5 3.4 3.1 3.3 3.0 2.9 2.9 2.2 2.5 1.9 1.4
2.7 2.3 4.1 5.1 5.6 6.1 5.9 5.0 5.0 5.9 5.4 5.9 4.9 4.9 4.3 5.9 5.2 4.7 4.5 4.6 4.7 4.0 2.9 2.2 2.8 2.5 2.6 2.3 2.6 1.8 2.2 1.2
2.0 1.8 2.8 3.1 3.9 3.6 5.9 5.3 5.1 5.6 6.2 6.6 5.6 4.8 4.5 4.1 4.2 4.1 3.8 3.7 3.8 4.0 3.0 3.0 2.4 2.3 2.8 1.9 1.9 2.7 2.8 1.6
2.3 1.0 0.7 1.3 2.2 3.3 4.6 4.6 4.7 4.5 5.3 5.4 5.3 6.3 5.7 4.8 3.8 4.2 3.4 3.8 3.0 4.0 3.6 3.7 2.8 2.5 2.3 2.4 1.7 2.1 3.0 2.3
1.3 0.6 0.1 0.2 1.7 2.4 3.4 4.0 4.5 4.7 4.0 4.7 3.9 4.1 3.8 3.8 3.6 3.6 3.4 3.7 4.1 4.1 3.4 3.1 2.5 2.1 2.2 1.8 1.4 1.3 2.0 3.0
2.1 1.5 1.2 0.5 0.8 1.7 2.5 3.2 3.4 4.1 4.0 4.2 4.1 4.5 4.9 4.2 3.5 3.8 4.2 4.3 3.9 3.2 3.4 2.7 2.6 2.4 2.0 1.8 2.1 1.7 1.6 2.5
2.4 1.8 1.5 1.2 0.7 1.0 1.3 2.2 2.6 3.4 3.8 4.4 4.1 4.2 4.1 4.4 4.3 4.0 3.9 3.9 3.8 3.7 2.2 1.7 2.1 2.5 2.2 2.3 2.1 1.4 1.3 2.7
2.5 1.8 1.4 1.4 1.4 1.2 1.3 1.6 2.4 3.2 3.4 3.7 4.1 4.4 4.6 4.6 4.7 4.1 3.9 3.9 3.8 3.0 2.2 2.3 2.8 2.9 3.1 1.9 2.2 1.6 2.8 2.8
3.3 2.8 1.5 1.4 1.8 1.9 1.5 1.7 1.7 2.4 2.4 2.9 3.2 3.7 3.9 4.0 4.1 3.6 3.7 3.2 2.9 2.1 2.8 2.6 2.7 1.9 1.8 1.1 1.7 1.5 2.1 2.4
4.7 4.3 2.9 2.1 1.8 2.2 2.1 2.2 2.6 3.3 3.7 3.5 3.8 3.7 4.2 3.8 4.2 3.4 2.5 3.3 2.3 1.6 2.1 1.7 1.3 1.3 1.0 0.9 1.1 1.8 2.0 2.2
3.8 3.7 3.0 2.8 3.4 2.5 1.9 2.5 3.3 3.2 3.0 3.7 4.1 3.9 4.0 4.3 4.1 3.8 3.1 2.3 2.2 2.4 1.8 2.0 1.8 0.8 0.6 1.0 1.5 1.7 2.5 2.2
3.1 2.7 3.5 3.3 3.7 3.5 1.9 2.6 2.8 2.4 2.8 3.4 3.9 4.1 4.4 4.4 4.0 3.8 3.3 3.5 2.5 2.2 2.9 2.4 2.1 1.2 0.8 1.5 1.8 1.9 2.4 1.5
1.8 2.9 3.1 3.0 3.3 4.0 4.1 3.0 2.3 2.6 3.6 3.5 3.7 3.9 4.4 4.2 3.6 3.6 3.1 3.3 2.9 3.3 2.7 2.5 1.2 1.2 2.0 1.6 2.0 1.6 1.6 1.4
-0.2 0.9 1.7 2.2 2.3 2.6 2.9 3.0 2.2 2.2 3.5 4.0 4.3 3.6 3.7 4.0 4.0 3.3 3.1 3.1 2.8 1.4 1.0 2.1 1.6 1.6 1.9 1.5 1.6 1.1 0.9 0.9
0.4 -0.6 -0.1 1.2 1.7 1.5 2.4 1.3 2.0 1.7 2.3 3.6 3.9 4.0 3.6 3.0 2.7 3.3 3.6 3.2 2.2 1.0 0.1 0.9 1.1 1.7 0.9 1.1 0.6 0.3 0.7 1.2
1.5 1.3 0.2 0.1 0.2 0.6 0.8 1.0 0.9 1.2 1.3 1.7 3.4 4.1 2.7 1.9 2.5 3.5 2.0 1.3 1.3 0.7 1.8 1.2 1.1 0.7 -1.9 -1.6 0.1 0.5 1.1 1.9
1.4 1.0 0.9 0.6 0.5 0.4 0.1 0.1 0.1 0.2 0.9 1.7 2.7 2.6 3.0 2.8 1.8 1.0 0.7 1.1 1.0 -0.3 -0.5 0.3 0.3 -0.6 -2.3 -1.5 -0.9 1.2 1.8 2.1
0.4 -0.5 -0.1 1.2 -0.7 -1.9 -2.9 -2.1 -0.8 0.2 0.3 0.0 1.2 2.1 2.7 1.1 0.7 -0.2 -0.7 0.1 -0.1 -0.4 -0.6 -0.5 0.1 -0.8 -2.0 -1.3 -0.6 1.6 2.6 2.7
Wind_Speed
6 8 7 7 5 5 7 5 10 11 7 7 5 4 2 10 6 10 16 11 13 12 8 10 12 5 4 4 4 2 3 4
6 6 6 7 6 7 7 9 9 10 9 9 5 6 2 4 8 10 8 9 11 12 8 8 9 6 7 7 3 4 1 3
7 7 8 8 7 8 8 8 10 9 7 7 5 5 2 2 1 2 9 7 7 9 9 5 6 4 5 6 5 3 2 4
10 11 12 8 9 7 9 8 7 5 7 6 4 2 1 1 3 1 4 3 7 9 7 7 6 5 6 6 6 7 5 4
7 10 11 12 11 8 7 7 7 5 5 5 6 9 8 6 4 3 5 9 8 10 12 12 9 8 7 7 6 4 5 5
13 13 13 12 11 10 10 10 9 8 7 7 5 5 3 2 3 5 6 6 11 13 13 13 7 6 7 8 6 6 4 4
13 10 8 9 8 8 10 11 12 13 11 11 11 11 9 7 6 7 7 7 7 12 14 12 11 8 7 7 6 8 9 5
15 14 14 12 13 13 12 14 15 15 15 15 14 14 12 11 10 9 9 9 9 10 7 7 6 8 6 7 7 8 7 7
18 19 17 16 16 17 16 17 18 18 18 18 16 15 11 11 12 9 8 9 9 7 8 9 8 12 12 11 7 7 8 8
21 19 19 18 19 19 19 19 19 19 19 17 17 16 16 15 15 10 9 8 7 7 10 10 10 10 9 8 7 9 8 7
16 17 19 18 19 18 19 20 20 16 15 16 16 17 17 16 13 13 11 11 6 7 9 10 10 10 9 9 6 5 8 6
18 18 18 20 16 17 20 19 18 18 21 19 18 17 17 14 14 15 11 8 9 10 9 9 10 11 9 8 7 8 8 8
14 17 17 18 20 20 22 18 21 23 21 18 19 18 15 13 13 12 11 12 8 10 11 13 10 10 10 9 9 9 11 9
9 10 15 17 19 19 19 19 22 21 18 20 18 17 16 18 16 17 14 14 14 13 10 12 11 10 10 9 10 9 9 9
8 8 13 16 17 19 19 19 21 20 19 20 20 20 19 17 16 14 16 15 14 13 13 10 10 10 10 9 9 8 8 8
9 9 11 13 14 16 17 18 17 18 19 19 21 18 14 13 13 15 15 12 12 11 9 8 8 8 7 9 8 9 10 9
11 13 11 11 14 15 16 17 17 17 18 19 16 14 11 13 13 13 9 8 9 8 9 9 9 5 11 13 11 9 10 10
11 12 15 13 14 16 17 16 10 12 15 13 13 12 13 11 9 9 9 9 8 8 9 9 8 7 15 15 13 8 9 9
10 9 11 14 8 6 6 7 7 9 9 9 9 11 9 8 10 10 9 9 10 9 8 8 7 5 13 14 12 8 7 7
Wind_Direction
180 158 158 155 145 153 128 114 140 130 121 105 77 45 97 133 127 136 153 155 179 168 175 193 169 154 157 147 148 151 154 167
155 155 148 153 157 157 168 147 130 144 151 140 133 154 240 181 161 161 127 171 172 177 176 165 172 167 180 178 140 161 130 153
161 161 174 183 175 176 173 163 162 158 156 158 140 167 283 239 171 206 184 209 199 193 179 170 176 159 154 173 167 141 158 175
177 173 186 179 189 178 173 171 165 150 159 164 117 135 301 300 252 286 280 246 217 207 173 184 187 181 193 189 185 171 161 192
191 180 181 187 189 175 179 170 174 157 154 175 183 197 199 213 227 245 266 277 262 238 216 207 194 195 194 203 182 185 149 176
200 196 190 189 178 181 181 177 182 184 170 180 180 192 193 220 208 222 248 258 244 237 213 207 205 196 204 188 173 193 184 177
207 202 181 184 177 178 184 190 195 192 191 195 189 195 201 205 215 223 232 236 238 232 223 201 202 202 192 191 189 205 203 203
198 192 187 185 187 192 190 195 205 201 202 206 201 202 207 212 216 218 219 228 235 235 211 203 203 203 192 193 198 209 193 199
196 197 194 192 194 194 195 198 207 204 203 209 210 211 214 217 222 222 222 223 228 220 209 197 216 212 204 205 202 209 207 209
201 196 196 192 196 199 201 202 207 207 208 208 210 209 216 220 221 217 225 228 231 211 210 205 209 211 203 187 197 197 193 192
202 201 199 198 199 200 203 208 208 209 212 214 218 217 221 222 222 220 208 225 207 213 212 204 200 205 194 183 182 171 174 182
200 203 200 201 195 200 208 207 202 210 216 217 218 222 224 224 226 226 212 197 204 204 212 215 206 198 191 185 184 169 182 179
202 201 197 195 198 198 205 202 208 212 214 216 221 221 218 214 216 210 207 218 201 200 212 218 210 209 193 187 186 179 184 179
200 192 201 197 199 203 204 204 212 217 212 217 220 221 218 215 206 209 207 216 215 213 207 206 198 198 201 187 185 178 176 173
195 198 204 205 196 202 203 206 211 214 215 217 216 220 218 213 214 205 205 211 210 191 188 191 202 189 197 181 178 168 161 161
198 201 208 206 198 201 207 210 206 208 212 214 218 217 215 209 200 206 209 210 207 192 174 172 181 180 180 171 158 151 150 148
216 209 204 206 196 201 202 209 209 199 207 214 213 207 193 194 196 204 191 181 185 175 186 179 168 169 164 151 149 154 154 157
220 206 205 201 204 207 205 209 192 191 201 205 202 199 203 196 177 161 176 171 148 147 144 154 169 154 156 149 145 149 149 149
228 208 201 206 190 169 134 134 153 181 181 174 180 192 202 171 163 163 151 149 147 147 147 140 142 141 149 140 127 122 112 99